Weather in Bolgatanga

Ghana     10°47′31″N   0°51′31″E
temp.,
°C
wind,
m/s
gust,
m/s
humid.,
%
clouds,
%
prec.,
mm/h
press.,
hPa
HPBL,
m
16 may, sun
sun1600:00+31ese4845100 0.7 1010426
03:00+28sse366096 0.3 1010433
06:00+28s2558100 0.5 1010384
09:00+32wsw344559 0.0 1011651
12:00+38ssw322951 0.0 10081886
15:00+41n04225 0.0 10052962
18:00+38sse35264 0.0 1005508
21:00+34sse37376 0.0 1007320
17 may, mon
mon1700:00+33s493931 0.0 1008485
03:00+31ssw494774 0.0 1008801
06:00+29sw496170 0.0 1009629
09:00+33sw564848 0.0 10111007
12:00+38ssw3234100 0.0 10091942
15:00+40sse472638 0.0 10062910
18:00+38se352821 0.0 1006609
21:00+35s253445 0.0 1008226
18 may, tue
tue1800:00+33ssw410445 0.0 1008533
03:00+30s510555 0.0 1009766
06:00+29sw496263 0.0 1010660
09:00+32ssw565270 0.0 10111077
12:00+37ssw443728 0.0 10091703
15:00+39s3428100 0.0 10072623
18:00+37sse4532100 0.0 1007683
21:00+34sse5940100 0.0 1010795
19 may, wed
wed1900:00+30s41154100 0.0 1010460
03:00+29s4115293 0.0 1009544
06:00+28sw4964100 0.0 1010605
09:00+32ssw455288 0.0 10121038
12:00+37ssw453575 0.0 10101701
15:00+39s4328100 0.0 10072536
18:00+37s4532100 0.0 1008575
21:00+34s3838100 0.0 1009359
20 may, thu
thu2000:00+30sse51245100 0.8 1010329
03:00+30s5114954 0.2 1009847
06:00+28sw41060100 0.2 1010657
09:00+32sw5651100 0.0 1012998
12:00+37ssw4336100 0.0 10101688
15:00+39s323099 0.0 10062310
18:00+37sse353296 0.0 1007460
21:00+29ese6115446 0.7 1011485